Location: Middlebury
(44.0153°N, 73.1678°W)
Time: 04:25:24
(UTC-04:00)

ISS - Visible Passes

Search period start: 24 September 2017 00:00
Search period end: 04 October 2017 00:00
Orbit: 401 x 407 km, 51.6° (Epoch: 24 September)

Date Brightness Start Highest point End Pass type
(mag) Time Alt. Az. Time Alt. Az. Time Alt. Az.
24 Sep -1.5 20:46:11 10° SW 20:47:03 17° SW 20:47:03 17° SW visible
25 Sep -2.9 19:54:19 10° SSW 19:57:10 28° SE 19:57:36 27° ESE visible
26 Sep -3.3 20:37:53 10° WSW 20:40:37 57° W 20:40:37 57° W visible
27 Sep -3.8 19:45:34 10° SW 19:48:48 64° SE 19:50:45 22° ENE visible
27 Sep -0.7 21:22:33 10° W 21:23:25 16° WNW 21:23:25 16° WNW visible
28 Sep -2.7 20:29:52 10° W 20:32:59 39° NNW 20:33:23 37° N visible
29 Sep -3.4 19:37:18 10° WSW 19:40:31 61° NNW 19:43:14 14° NE visible
29 Sep -0.8 21:14:47 10° WNW 21:15:54 16° NW 21:15:54 16° NW visible
30 Sep -2.1 20:22:02 10° WNW 20:24:53 27° NNW 20:25:38 24° N visible
01 Oct -2.5 19:29:17 10° W 19:32:20 35° NNW 19:35:19 10° NE visible
01 Oct -0.9 21:06:52 10° NW 21:07:57 16° NW 21:07:57 16° NW visible
02 Oct -1.9 20:14:10 10° WNW 20:16:48 22° N 20:17:34 20° NNE visible
03 Oct -2.0 19:21:23 10° WNW 19:24:10 25° NNW 19:26:58 10° NE visible
03 Oct -1.0 20:58:42 10° NW 20:59:47 16° NNW 20:59:47 16° NNW visible
